Regional Weather Roundup
Issued by NWS

Home | Current Version | Previous Version | Graphics & Text | Print | Product List | Glossary Off
Versions: 1 2 3 4 5 6 7 8 9 10 11 12 13 14 15 16 17 18 19 20 21 22 23 24 25 26 27 28 29 30 31 32 33 34 35 36 37 38 39 40 41 42 43 44 45 46 47 48 49 50

884
ASUS43 KLMK 140010
RWRKY
KENTUCKY REGIONAL WEATHER ROUNDUP
NATIONAL WEATHER SERVICE LOUISVILLE KY
700 PM EST SAT FEB 13 2016

NOTE "FAIR" INDICATES FEW OR NO CLOUDS BELOW 12,000 FEET
WITH NO SIGNIFICANT WEATHER AND/OR OBSTRUCTIONS TO VISIBILITY.

KYZ001>023-026-027-061>063-070>075-140100-
WESTERN AND SOUTH CENTRAL KENTUCKY

CITY           SKY/WX    TMP DP  RH WIND       PRES   REMARKS
PADUCAH        CLOUDY    27   2  34 E5        30.52S WCI  22
HENDERSON      CLOUDY    23   3  42 NE7       30.55S WCI  15
OWENSBORO      CLOUDY    24   0  35 NW5       30.55S WCI  18
HOPKINSVILLE   CLOUDY    26   5  40 NE9       30.51R WCI  17
BOWLING GREEN  CLOUDY    27   2  34 N5        30.52R WCI  22
GLASGOW        PTCLDY    24   6  47 NE3       30.50R
$$

KYZ024-025-028>034-038-045-046-053-140100-
NORTH CENTRAL KENTUCKY

CITY           SKY/WX    TMP DP  RH WIND       PRES   REMARKS
LOUISVILLE/SDF PTCLDY    21   1  41 NW7       30.53R WCI  12
LOUISVILLE/LOU CLEAR     23   1  38 N6        30.53S WCI  16
FORT KNOX      CLEAR     21   0  39 N5        30.48S WCI  15
$$

KYZ035>037-039>044-047>052-055>060-089>105-140100-
NORTHEAST KENTUCKY

CITY           SKY/WX    TMP DP  RH WIND       PRES   REMARKS
LEXINGTON      CLEAR     18   1  47 N6        30.49R WCI  10
COVINGTON      PTCLDY    15   1  53 NW5       30.51S WCI   8
FRANKFORT      CLEAR     20   0  41 N3        30.50S
$$

KYZ054-064>069-076>088-106>120-140100-
SOUTHEAST KENTUCKY

CITY           SKY/WX    TMP DP  RH WIND       PRES   REMARKS
JACKSON        CLEAR     17   0  47 CALM      30.45R
LONDON         CLEAR     20   2  45 N6        30.47R WCI  12
SOMERSET       CLEAR     21   3  45 CALM      30.50S
MIDDLESBORO    CLEAR     23   5  45 N3        30.46S
MONTICELLO     PTCLDY    20   8  60 N15       30.49S WCI   6
$$





USA.gov is the U.S. government's official web portal to all federal, state and local government web resources and services.